Date String (YYYY-MM-DD hh:mm:ss) UTC,Instrument flags,absolute air pressure of the measurement (hPa),sample flow rate (lpm),inlet stack bypass flow (lpm),air temperature of the measurement (°C),ambient temperature measured by the external sensor (°C),aerosol sample conditioner tube jacket temperature (°C),OPC LED temperature (°C),internal box temperature (°C),relative humidity of the measurement (%),span deviation,mass concentration of particles derived from Lorenz-Mie calculation of OPC scattering (μg/m³),mass concentration of particles derived from Lorenz-Mie calculation of OPC scattering (μg/m³),mass concentration of particles derived from Lorenz-Mie calculation of OPC scattering (μg/m³)
DateTimeUTC,F1_M11,P_M11,Q1_M11,Q2_M11,T1_M11,T2_M11,T3_M11,T4_M11,T5_M11,U1_M11,ZSPAN_M11,X2_M11,X0_M11,X1_M11
2024-02-09 05:00:00,SystemResetWarning,0821.0,4.99,000.00,019.0,018.3,000.0,027.4,020.6,17.6,0000.0,0002.03,0004.11,0001.50
2024-02-09 05:01:00,SystemResetWarning,0820.9,4.99,000.00,019.0,018.3,000.0,027.4,020.5,17.7,0000.0,0002.07,0004.08,0001.52
2024-02-09 05:02:00,SystemResetWarning,0821.0,5.01,000.00,019.0,018.3,000.0,027.4,020.5,17.7,0000.0,0002.10,0004.06,0001.54
2024-02-09 05:03:00,SystemResetWarning,0821.0,5.01,000.00,019.0,018.3,000.0,027.4,020.5,17.7,0000.0,0002.12,0004.87,0001.54
2024-02-09 05:04:00,SystemResetWarning,0820.8,5.00,000.00,018.9,018.2,000.0,027.4,020.5,17.7,0000.0,0002.15,0005.94,0001.54
2024-02-09 05:05:00,SystemResetWarning,0821.0,4.99,000.00,018.9,018.2,000.0,027.3,020.5,18.1,0000.0,0002.20,0006.70,0001.55
2024-02-09 05:06:00,SystemResetWarning,0820.8,5.00,000.00,018.9,018.2,000.0,027.3,020.4,18.4,0000.0,0002.17,0006.33,0001.56
2024-02-09 05:07:00,SystemResetWarning,0820.9,5.00,000.00,018.9,018.2,000.0,027.3,020.4,18.5,0000.0,0002.14,0006.34,0001.56
2024-02-09 05:08:00,SystemResetWarning,0820.8,5.00,000.00,018.8,018.2,000.0,027.3,020.4,18.5,0000.0,0002.13,0006.46,0001.56
2024-02-09 05:09:00,SystemResetWarning,0820.8,5.00,000.00,018.8,018.2,000.0,027.3,020.4,18.6,0000.0,0002.13,0006.56,0001.55
2024-02-09 05:10:00,SystemResetWarning,0820.8,5.00,000.00,018.8,018.1,000.0,027.3,020.4,18.7,0000.0,0002.08,0006.36,0001.55
2024-02-09 05:11:00,SystemResetWarning,0820.8,5.00,000.00,018.8,018.1,000.0,027.2,020.4,18.8,0000.0,0002.07,0006.31,0001.56
2024-02-09 05:12:00,SystemResetWarning,0820.8,5.01,000.00,018.8,018.1,000.0,027.2,020.4,18.9,0000.0,0002.04,0006.35,0001.57
2024-02-09 05:13:00,SystemResetWarning,0820.8,5.01,000.00,018.8,018.1,000.0,027.2,020.4,19.0,0000.0,0002.01,0006.50,0001.57
2024-02-09 05:14:00,SystemResetWarning,0820.8,4.99,000.00,018.8,018.1,000.0,027.2,020.4,19.0,0000.0,0002.05,0005.97,0001.60
2024-02-09 05:15:00,SystemResetWarning,0820.8,4.99,000.00,018.8,018.1,000.0,027.2,020.3,19.0,0000.0,0002.09,0004.96,0001.62
2024-02-09 05:16:00,SystemResetWarning,0820.8,5.01,000.00,018.8,018.1,000.0,027.2,020.3,19.0,0000.0,0002.06,0004.08,0001.62
2024-02-09 05:17:00,SystemResetWarning,0820.8,5.00,000.00,018.7,018.1,000.0,027.2,020.3,19.1,0000.0,0002.04,0003.94,0001.62
2024-02-09 05:18:00,SystemResetWarning,0820.8,5.00,000.00,018.7,018.1,000.0,027.2,020.3,19.1,0000.0,0002.06,0003.91,0001.63
2024-02-09 05:19:00,SystemResetWarning,0820.8,5.01,000.00,018.7,018.1,000.0,027.2,020.3,19.1,0000.0,0002.11,0004.04,0001.65
2024-02-09 05:20:00,SystemResetWarning,0820.8,5.00,000.00,018.7,018.1,000.0,027.2,020.3,19.2,0000.0,0002.12,0003.91,0001.66
2024-02-09 05:21:00,SystemResetWarning,0820.8,5.00,000.00,018.7,018.1,000.0,027.1,020.3,19.2,0000.0,0002.13,0003.87,0001.69
2024-02-09 05:22:00,SystemResetWarning,0820.8,5.00,000.00,018.7,018.0,000.0,027.1,020.3,19.2,0000.0,0002.14,0003.82,0001.72
2024-02-09 05:23:00,SystemResetWarning,0820.9,4.99,000.00,018.7,018.0,000.0,027.1,020.3,19.2,0000.0,0002.15,0003.69,0001.73
2024-02-09 05:24:00,SystemResetWarning,0820.8,5.00,000.00,018.7,018.1,000.0,027.1,020.3,19.2,0000.0,0002.14,0003.68,0001.74
2024-02-09 05:25:00,SystemResetWarning,0820.8,5.00,000.00,018.7,018.1,000.0,027.1,020.4,19.3,0000.0,0002.11,0003.88,0001.74
2024-02-09 05:26:00,SystemResetWarning,0820.8,5.00,000.00,018.7,018.1,000.0,027.1,020.4,19.4,0000.0,0002.06,0003.74,0001.75
2024-02-09 05:27:00,SystemResetWarning,0820.8,5.01,000.00,018.7,018.1,000.0,027.1,020.3,19.4,0000.0,0002.05,0003.70,0001.75
2024-02-09 05:28:00,SystemResetWarning,0820.8,5.00,000.00,018.7,018.1,000.0,027.1,020.3,19.4,0000.0,0002.07,0003.75,0001.76
2024-02-09 05:29:00,SystemResetWarning,0820.8,5.00,000.00,018.7,018.1,000.0,027.1,020.3,19.4,0000.0,0002.10,0003.80,0001.78
2024-02-09 05:30:00,SystemResetWarning,0820.8,4.99,000.00,018.7,018.1,000.0,027.1,020.3,19.4,0000.0,0002.08,0003.54,0001.79
2024-02-09 05:31:00,SystemResetWarning,0820.8,5.00,000.00,018.7,018.1,000.0,027.1,020.3,19.5,0000.0,0002.12,0004.39,0001.80
2024-02-09 05:32:00,SystemResetWarning,0820.8,5.00,000.00,018.7,018.1,000.0,027.0,020.2,19.5,0000.0,0002.17,0005.01,0001.80
2024-02-09 05:33:00,SystemResetWarning,0820.8,5.00,000.00,018.6,018.1,000.0,027.0,020.2,19.5,0000.0,0002.19,0007.00,0001.80
2024-02-09 05:34:00,SystemResetWarning,0820.8,5.00,000.00,018.6,018.0,000.0,027.1,020.3,19.5,0000.0,0002.20,0007.19,0001.77
2024-02-09 05:35:00,SystemResetWarning,0820.8,5.00,000.00,018.6,018.0,000.0,027.0,020.3,19.5,0000.0,0002.20,0007.01,0001.76
2024-02-09 05:36:00,SystemResetWarning,0820.8,5.00,000.00,018.6,018.0,000.0,027.0,020.3,19.5,0000.0,0002.18,0006.65,0001.76
2024-02-09 05:37:00,SystemResetWarning,0820.8,5.00,000.00,018.6,018.0,000.0,027.0,020.3,19.5,0000.0,0002.17,0006.63,0001.75
2024-02-09 05:38:00,SystemResetWarning,0820.8,4.99,000.00,018.6,018.1,000.0,027.0,020.3,19.5,0000.0,0002.16,0006.54,0001.74
2024-02-09 05:39:00,SystemResetWarning,0820.8,5.00,000.00,018.6,018.1,000.0,027.0,020.3,19.5,0000.0,0002.18,0006.54,0001.74
2024-02-09 05:40:00,SystemResetWarning,0820.8,5.00,000.00,018.6,018.1,000.0,027.0,020.3,19.4,0000.0,0002.12,0006.42,0001.72
2024-02-09 05:41:00,SystemResetWarning,0820.8,5.01,000.00,018.6,018.1,000.0,027.0,020.3,19.4,0000.0,0002.15,0006.48,0001.71
2024-02-09 05:42:00,SystemResetWarning,0820.9,5.01,000.00,018.7,018.1,000.0,027.0,020.3,19.4,0000.0,0002.12,0005.78,0001.71
2024-02-09 05:43:00,SystemResetWarning,0820.9,5.00,000.00,018.7,018.1,000.0,027.0,020.3,19.3,0000.0,0002.11,0005.22,0001.69
2024-02-09 05:44:00,SystemResetWarning,0820.9,4.99,000.00,018.7,018.1,000.0,027.0,020.3,19.3,0000.0,0002.12,0003.42,0001.69
2024-02-09 05:45:00,SystemResetWarning,0821.0,4.98,000.00,018.7,018.1,000.0,027.0,020.3,19.3,0000.0,0002.12,0003.34,0001.70
2024-02-09 05:46:00,SystemResetWarning,0821.1,5.01,000.00,018.7,018.1,000.0,027.0,020.3,19.3,0000.0,0002.13,0003.24,0001.71
2024-02-09 05:47:00,SystemResetWarning,0821.0,5.01,000.00,018.7,018.1,000.0,027.0,020.3,19.2,0000.0,0002.19,0003.38,0001.72
2024-02-09 05:48:00,SystemResetWarning,0821.1,4.99,000.00,018.7,018.0,000.0,027.0,020.3,19.2,0000.0,0002.24,0003.58,0001.75
2024-02-09 05:49:00,SystemResetWarning,0821.0,4.99,000.00,018.6,018.0,000.0,027.0,020.3,19.1,0000.0,0002.27,0003.76,0001.75
2024-02-09 05:50:00,SystemResetWarning,0820.9,5.00,000.00,018.6,018.0,000.0,027.0,020.3,19.2,0000.0,0002.26,0003.83,0001.73
2024-02-09 05:51:00,SystemResetWarning,0821.1,5.01,000.00,018.6,018.0,000.0,027.0,020.2,19.0,0000.0,0002.27,0003.86,0001.73
2024-02-09 05:52:00,SystemResetWarning,0821.0,5.00,000.00,018.6,018.0,000.0,027.0,020.2,19.0,0000.0,0002.28,0004.27,0001.73
2024-02-09 05:53:00,SystemResetWarning,0821.1,5.00,000.00,018.6,018.0,000.0,027.0,020.2,19.1,0000.0,0002.26,0004.18,0001.73
2024-02-09 05:54:00,SystemResetWarning,0821.1,4.99,000.00,018.6,018.0,000.0,027.0,020.3,19.1,0000.0,0002.25,0005.18,0001.73
2024-02-09 05:55:00,SystemResetWarning,0821.0,4.99,000.00,018.6,018.0,000.0,027.0,020.3,19.1,0000.0,0002.22,0005.07,0001.72
2024-02-09 05:56:00,SystemResetWarning,0821.0,5.00,000.00,018.6,018.0,000.0,027.0,020.3,19.1,0000.0,0002.21,0004.95,0001.73
2024-02-09 05:57:00,SystemResetWarning,0821.0,5.01,000.00,018.6,018.0,000.0,027.0,020.3,19.2,0000.0,0002.22,0005.05,0001.73
2024-02-09 05:58:00,SystemResetWarning,0821.0,5.01,000.00,018.6,018.0,000.0,027.0,020.3,19.1,0000.0,0002.20,0005.11,0001.72
2024-02-09 05:59:00,SystemResetWarning,0821.1,4.99,000.00,018.6,018.1,000.0,027.0,020.3,19.0,0000.0,0002.18,0005.13,0001.71
